Showing default

RELAY 1 (A-15), 503

Orbit data source: Space-Track

RELAY 1 (A-15), 503 is a payload satellite owned by GSFC (US) that was launched on Thu, 13 Dec 1962 UTC via a THOR DELTA B launch vehicle from the Air Force Eastern Test Range (AFETR). Payloads include a variety of satellites, spacecraft, and rockets equipped with specific instruments for various scientific and technological missions. These include communications satellites like Starlink; space stations such as the ISS; scientific satellites like the Hubble; Earth observation satellites from companies like Planet Labs, Umbra, and HawkEye 360; GPS; miniature CubeSats for education and research; and military/defense satellites.

Loading next visibility...
RELAY 1 (A-15) details
Identifier
503, 1962-068A
Orbit
Active
Last TLE update1 day ago
Origin
Flag of USGSFC (US)
ManufacturerRCA/East Windsor
MissionCivil Communications
Bus & MotorRELAY, Unknown motor
Mass78 kg wet, 78 kg dry
Launch date (UTC)
1962-12-13 (62 years ago)
Launch vehicle
THOR DELTA B
Launch site
Air Force Eastern Test Range (AFETR)
Object type
Payload
Rocket body
Debris
Shape & HBROct Cyl, 0.81 m
Radar Cross Section0.652 m², Medium (>0.1 m² and < 1m²)

Expand to show TLE details & history

TLE from 1 day ago
0 RELAY 1 (A-15)
1 00503U 62068A   25014.22281168 -.00000017  00000-0  00000-0 0  9991
2 00503  47.5312   9.0627 2845355 309.4175  41.6882  7.78160796765083
Epoch: 2025-01-14T05:20Z
Definitive object data (Epoch: 2025-01-14T05:20:50.929Z)
Latitude14.10536°
Longitude-171.84433°
Altitude2,625.296 km
Speed7.177 km/s
True Right ascension01h 29m 12s
True Declination14° 02' 28"
Sunlit
Object was in daylight at TLE epoch
Visualization TLE readout
Latitude4.41462°
Longitude-10.69571°
Altitude6,101.788 km
Speed5.18 km/s
Apparent Right ascension12h 39m 42s
Apparent Declination-22° 05' 34"
Sunlit
Object is in daylight
Visualization observer readout
Local Sidereal Time11:33:05
Azimuth162.803° S
Elevation26.073°
Doppler factor1
Orbital elements
Apogee altitude7,440.646 km
Perigee altitude1,318.691 km
Semi-major axis10,757.806 km
Eccentricity0.2845355
Inclination47.5312°
RAAN9.0627°
Arg. of periapsis309.4175°
True anomaly69.85124°
Mean anomaly41.6882°
Eccentric anomaly55.05087°
Mean motion1.94517 °/min
BSTARUnknown
Orbital period185.07 mins
Loading maneuver chart data...
Loading historical data...
Loading historical data...
Loading historical data...
Loading historical data...
Loading historical data...
Loading historical data...
Loading historical data...
Other satellites on launch #68 in the year 1962 (1962-12-13 UTC)

RELAY 1 (A-15) Visibility forecast

Observer location: undefined°, undefined

Span
Click to sort rows by Start time (UTC) header in descending order
Start Az.
Max El. time (UTC)
Max El. Az.
Max El.
End time (UTC)
End Az.
8 mins2025-01-15 10:52:58.828Z162.827° S2025-01-15 10:52:58.828Z162.827° S23.683°2025-01-15 11:00:58.828Z157.618° S
46 mins2025-01-15 13:13:58.828Z292.828° NW2025-01-15 13:37:58.828Z262.548° W17.477°2025-01-15 13:59:58.828Z229.146° WSW
40 mins2025-01-16 00:28:58.828Z182.644° SSW2025-01-16 00:39:58.828Z121.029° SE35.575°2025-01-16 01:08:58.828Z56.465° ENE
66 mins2025-01-16 03:40:58.828Z252.468° W2025-01-16 03:59:58.828Z340.95° N44.572°2025-01-16 04:46:58.828Z74.385° E
83 mins2025-01-16 07:00:58.828Z290.95° WNW2025-01-16 07:34:58.828Z23.283° NE44.776°2025-01-16 08:23:58.828Z118.783° SE
29 mins2025-01-16 10:23:58.828Z303.004° NW2025-01-16 10:52:58.828Z271.076° WNW36.622°2025-01-16 10:52:58.828Z271.076° WNW
|